Flag for Norway Weather past 2 weeks in Sandnessjøen, Norway

Now
45 °F

Scattered clouds.


Feels Like: 37 °F
Forecast: 40 / 43 °F
Wind: 17 mph from Southeast

Location: Sandnessjoen / Stokka

Current Time: Oct 21, 2014 at 5:14:05 PM

Latest Report: Oct 21, 2014 at 3:50 PM


Visibility: N/A

Pressure: 29.53 "Hg

Humidity: 49%

Dew point: 27 °F

Location of SandnessjøenLocation

Historic Weather in Sandnessjøen — Graph

°F

Sandnessjøen temperature yesterday

Maximum temperature yesterday: 48 °F (at 2:20 PM)
Minimum temperature yesterday: 43 °F (at 10:20 AM)
Average temperature yesterday: 45 °F

Past Weeks' High & Low Weather Summary

 TemperatureHumidityPressure
High59 °F (Oct 6, 3:20 PM)87% (Oct 13, 9:50 PM)30.42 "Hg (Oct 13, 9:50 PM)
Low30 °F (Oct 15, 9:20 AM)39% (Oct 18, 9:50 PM)29.33 "Hg (Oct 19, 9:50 PM)
Average44 °F63%29.86 "Hg
* Reported Oct 6 3:20 PM — Oct 21 3:50 PM, Sandnessjøen, Weather by CustomWeather, © 2014

Note: Actual official high and low records may vary slightly from our data, if they occured in-between our weather recording intervals... More about our weather records

Advertising

Sandnessjøen weather history for previous 24 hours

 ConditionsComfort  
Time TempWeatherWind HumidityBarometerVisibility
3:50 PM
Oct 21
45 °FScattered clouds.17 mph49%29.53 "HgN/A
3:20 PM45 °FScattered clouds.23 mph53%29.53 "HgN/A
2:50 PM45 °FScattered clouds.20 mph53%29.53 "HgN/A
2:20 PM46 °FScattered clouds.13 mph50%29.53 "HgN/A
1:50 PM46 °FScattered clouds.18 mph50%29.53 "HgN/A
1:20 PM45 °FScattered clouds.17 mph53%29.53 "HgN/A
12:50 PM45 °FScattered clouds.14 mph53%29.53 "HgN/A
12:20 PM45 °FScattered clouds.15 mph57%29.53 "HgN/A
11:50 AM45 °FScattered clouds.13 mph57%29.53 "HgN/A
11:20 AM45 °FScattered clouds.8 mph57%29.53 "HgN/A
10:50 AM45 °FScattered clouds.10 mph57%29.53 "HgN/A
10:20 AM45 °FBroken clouds.10 mph57%29.53 "HgN/A
9:50 AM43 °FBroken clouds.16 mph61%29.53 "HgN/A
9:20 AM45 °FPartly cloudy.13 mph57%29.53 "HgN/A
8:50 AM43 °FPassing clouds.12 mph61%29.53 "HgN/A
8:20 AM43 °FPassing clouds.9 mph61%29.53 "HgN/A
7:50 AM43 °FPassing clouds.13 mph61%29.53 "HgN/A
7:20 AM45 °FPassing clouds.10 mph61%29.53 "HgN/A
6:50 AM43 °FPassing clouds.9 mph71%29.53 "HgN/A
6:20 AM43 °FPassing clouds.7 mph71%29.53 "HgN/A
5:50 AM43 °FLight rain. Passing clouds.8 mph71%29.53 "HgN/A
4:50 AM43 °FLight rain. Passing clouds.6 mph76%29.53 "HgN/A
10:20 PM
Oct 20
46 °FPassing clouds.7 mph57%29.47 "HgN/A
9:50 PM45 °FPassing clouds.10 mph57%29.47 "HgN/A
9:20 PM45 °FPassing clouds.8 mph57%29.47 "HgN/A
8:50 PM45 °FPassing clouds.8 mph57%29.47 "HgN/A
8:20 PM45 °FPassing clouds.8 mph57%29.47 "HgN/A
7:50 PM45 °FPassing clouds.6 mph57%29.47 "HgN/A
7:20 PM45 °FPassing clouds.7 mph57%29.47 "HgN/A
6:50 PM45 °FPassing clouds.8 mph57%29.47 "HgN/A
6:20 PM45 °FScattered clouds.10 mph57%29.45 "HgN/A
5:50 PM45 °FPassing clouds.7 mph57%29.45 "HgN/A
5:20 PM43 °FPassing clouds.12 mph61%29.45 "HgN/A
Weather by CustomWeather, © 2014

See weather overviewHow to use our weather pages